Location: Emory University Observatory
(33.7903°N, 84.3267°W)
Time: 15:46:11
(UTC-05:00)

N. Korean satellite - Pass Details

Date: 15 October 2017
Orbit: 461 x 513 km, 97.2° (Epoch: 16 December)

Event Time Altitude Azimuth Distance (km) Brightness Sun altitude
Rises 20:33:50 0° 201° (SSW) 2,548 10.5 -19.6°
Reaches altitude 10° 20:36:26 10° 221° (SW) 1,661 9.8 -20.2°
Maximum altitude 20:38:52 17° 265° (W) 1,264 9.6 -20.7°
Drops below altitude 10° 20:41:18 10° 308° (NW) 1,649 10.0 -21.2°
Sets 20:43:53 0° 329° (NNW) 2,522 10.7 -21.7°
